Temp
-12 -13 -13 -13 -13 -13 -13 -13 -13 -13 -13 -13 -13 -13 -13 -13 -13 -13 -13 -13 -13 -12 -13 -13 -12 -12 -12 -12 -12 -12 -12 -12 -12 -12 -12 -12 -12 -12 -12 -12 -13 -13 -13 -12
-13 -13 -13 -13 -13 -13 -13 -13 -13 -13 -13 -13 -13 -13 -13 -13 -13 -13 -13 -13 -13 -13 -13 -13 -13 -12 -12 -12 -12 -12 -12 -12 -12 -12 -12 -12 -12 -12 -12 -12 -13 -13 -13 -13
-13 -13 -13 -13 -13 -13 -13 -13 -14 -14 -14 -14 -14 -14 -14 -14 -14 -14 -14 -13 -13 -13 -14 -13 -13 -13 -13 -13 -12 -13 -12 -12 -12 -13 -13 -13 -13 -12 -13 -12 -12 -12 -12 -12
-14 -14 -14 -14 -14 -14 -14 -14 -14 -14 -14 -14 -14 -14 -14 -14 -14 -14 -14 -14 -14 -14 -14 -14 -14 -14 -14 -13 -13 -12 -13 -13 -12 -12 -13 -14 -13 -13 -13 -13 -13 -13 -12 -11
-14 -14 -14 -14 -14 -14 -14 -14 -15 -15 -15 -15 -15 -15 -15 -15 -15 -15 -15 -15 -15 -15 -15 -15 -15 -15 -14 -14 -15 -14 -13 -13 -14 -14 -13 -13 -14 -14 -13 -13 -13 -13 -12 -12
-14 -14 -14 -15 -15 -15 -15 -15 -15 -15 -15 -15 -15 -15 -15 -15 -15 -15 -15 -16 -16 -16 -16 -16 -16 -16 -15 -16 -17 -17 -15 -14 -14 -14 -15 -15 -14 -14 -14 -14 -13 -13 -13 -12
-14 -14 -14 -15 -15 -15 -15 -15 -15 -15 -16 -16 -16 -16 -16 -16 -16 -16 -16 -16 -16 -17 -17 -17 -16 -16 -17 -19 -20 -20 -19 -18 -17 -16 -17 -16 -16 -16 -15 -15 -14 -13 -13 -13
-14 -14 -15 -15 -15 -15 -16 -16 -16 -16 -16 -17 -17 -17 -17 -17 -17 -17 -17 -17 -17 -17 -17 -17 -17 -19 -21 -22 -23 -23 -23 -22 -21 -20 -20 -19 -18 -17 -17 -17 -15 -14 -14 -14
-14 -15 -15 -15 -15 -16 -16 -17 -17 -17 -17 -17 -17 -17 -17 -18 -18 -18 -18 -18 -18 -18 -18 -17 -18 -21 -22 -24 -24 -23 -23 -23 -22 -22 -21 -21 -20 -20 -19 -18 -17 -15 -15 -14
-15 -15 -15 -15 -16 -16 -17 -17 -17 -17 -18 -18 -18 -18 -18 -18 -18 -18 -18 -19 -19 -18 -18 -19 -20 -22 -24 -24 -24 -24 -24 -24 -23 -23 -22 -21 -21 -21 -20 -20 -19 -18 -16 -16
-15 -15 -15 -16 -16 -16 -17 -17 -18 -18 -18 -19 -19 -18 -19 -19 -19 -19 -19 -19 -19 -19 -20 -20 -21 -22 -24 -25 -24 -24 -23 -23 -23 -23 -23 -23 -22 -21 -21 -21 -20 -19 -18 -17
-16 -16 -16 -16 -17 -17 -18 -18 -18 -19 -19 -19 -20 -19 -20 -20 -20 -20 -20 -20 -20 -19 -21 -22 -23 -24 -24 -24 -24 -24 -23 -23 -23 -23 -23 -23 -23 -23 -22 -21 -21 -21 -20 -19
-16 -16 -17 -17 -18 -18 -18 -19 -19 -19 -20 -20 -20 -20 -20 -20 -20 -20 -20 -20 -20 -21 -22 -23 -23 -24 -25 -25 -25 -25 -24 -24 -24 -24 -23 -23 -23 -23 -23 -22 -22 -21 -21 -20
-17 -17 -18 -18 -18 -19 -19 -19 -19 -19 -19 -20 -21 -21 -20 -20 -21 -21 -21 -21 -21 -21 -22 -23 -24 -24 -25 -26 -26 -26 -25 -25 -24 -24 -24 -23 -23 -23 -22 -22 -22 -22 -21 -21
-17 -18 -18 -19 -19 -19 -19 -19 -19 -20 -20 -20 -20 -21 -21 -21 -21 -21 -22 -21 -22 -22 -23 -23 -24 -24 -25 -25 -26 -26 -26 -26 -25 -25 -24 -24 -24 -23 -22 -22 -22 -22 -22 -22
-18 -18 -19 -19 -19 -19 -19 -20 -20 -20 -20 -20 -21 -21 -21 -21 -21 -21 -22 -22 -22 -23 -23 -23 -24 -24 -25 -25 -25 -26 -26 -26 -26 -26 -25 -25 -25 -25 -24 -24 -22 -22 -22 -22
-18 -19 -18 -19 -19 -19 -19 -20 -20 -20 -21 -21 -21 -21 -21 -21 -21 -22 -22 -22 -22 -23 -23 -24 -24 -24 -25 -25 -25 -25 -26 -26 -26 -26 -26 -26 -26 -25 -25 -25 -25 -24 -23 -22
-19 -19 -19 -19 -19 -19 -19 -20 -20 -20 -21 -21 -21 -21 -21 -21 -22 -22 -22 -22 -22 -23 -23 -24 -24 -24 -25 -25 -25 -26 -26 -26 -26 -26 -27 -27 -26 -26 -26 -26 -25 -25 -25 -24
-19 -19 -19 -19 -19 -19 -20 -20 -20 -20 -21 -21 -21 -21 -21 -21 -21 -22 -22 -22 -22 -22 -23 -24 -24 -24 -25 -25 -25 -25 -26 -26 -26 -26 -26 -27 -27 -27 -26 -26 -26 -25 -25 -25
-19 -19 -19 -19 -19 -19 -19 -19 -20 -20 -20 -21 -21 -21 -22 -22 -21 -22 -22 -22 -22 -22 -23 -24 -24 -24 -25 -25 -25 -26 -26 -26 -26 -26 -26 -27 -27 -27 -27 -27 -26 -26 -25 -25
-19 -19 -19 -19 -19 -20 -20 -20 -20 -20 -20 -21 -21 -21 -22 -22 -22 -22 -22 -23 -23 -23 -23 -24 -24 -25 -25 -25 -26 -26 -26 -26 -26 -26 -26 -26 -27 -27 -27 -27 -27 -27 -26 -26
-19 -19 -19 -19 -19 -19 -20 -20 -20 -20 -20 -20 -20 -21 -21 -21 -22 -22 -23 -23 -23 -23 -23 -24 -24 -25 -25 -25 -26 -26 -26 -26 -26 -26 -26 -26 -26 -26 -27 -27 -27 -27 -27 -26
-19 -19 -19 -19 -19 -20 -20 -20 -20 -20 -20 -21 -21 -21 -21 -21 -22 -22 -23 -23 -23 -23 -24 -24 -25 -25 -25 -26 -26 -26 -26 -26 -27 -27 -27 -26 -26 -27 -27 -27 -27 -28 -27 -27
-19 -19 -19 -19 -20 -20 -21 -20 -20 -20 -20 -20 -20 -21 -21 -22 -23 -23 -23 -24 -24 -24 -24 -25 -25 -26 -26 -26 -27 -27 -27 -27 -27 -27 -27 -27 -27 -27 -27 -28 -28 -28 -28 -28
-19 -19 -19 -19 -20 -20 -21 -20 -20 -20 -21 -21 -20 -21 -22 -22 -22 -23 -23 -24 -24 -24 -25 -25 -26 -26 -27 -27 -27 -27 -28 -28 -28 -28 -28 -28 -28 -28 -28 -28 -28 -28 -28 -27
-20 -19 -19 -20 -20 -20 -20 -21 -21 -21 -21 -22 -21 -22 -23 -23 -23 -23 -23 -24 -25 -25 -26 -26 -27 -27 -27 -28 -28 -29 -29 -28 -29 -28 -28 -29 -29 -29 -28 -28 -28 -28 -28 -28
Height
5839 5840 5839 5839 5839 5839 5839 5840 5839 5838 5838 5837 5836 5835 5832 5830 5828 5826 5825 5823 5820 5818 5817 5815 5813 5812 5812 5812 5814 5817 5819 5821 5825 5829 5832 5837 5842 5846 5848 5851 5853 5857 5861 5863
5837 5836 5836 5835 5836 5835 5835 5834 5834 5834 5833 5833 5831 5829 5827 5824 5821 5818 5815 5812 5810 5808 5804 5802 5801 5800 5798 5797 5797 5799 5803 5806 5810 5813 5818 5823 5829 5834 5836 5839 5842 5846 5848 5853
5833 5833 5833 5832 5832 5831 5830 5829 5827 5826 5825 5824 5822 5821 5818 5816 5813 5810 5807 5804 5800 5796 5793 5790 5786 5783 5782 5782 5781 5781 5783 5788 5793 5798 5800 5806 5812 5820 5823 5825 5828 5833 5836 5839
5831 5830 5829 5828 5827 5826 5825 5824 5822 5820 5817 5816 5813 5810 5808 5805 5802 5799 5795 5791 5787 5784 5780 5774 5771 5769 5767 5765 5763 5763 5764 5766 5772 5778 5784 5789 5794 5802 5809 5814 5816 5821 5825 5826
5828 5826 5825 5824 5823 5821 5820 5817 5815 5813 5811 5809 5806 5803 5798 5794 5791 5789 5784 5780 5776 5771 5767 5762 5757 5752 5749 5749 5747 5745 5745 5748 5751 5755 5762 5769 5776 5783 5790 5798 5803 5807 5809 5807
5823 5822 5821 5819 5817 5815 5814 5811 5809 5807 5804 5801 5797 5795 5790 5786 5782 5777 5773 5769 5765 5760 5755 5749 5743 5737 5733 5730 5729 5729 5726 5727 5731 5735 5740 5746 5754 5762 5770 5777 5787 5792 5794 5795
5817 5816 5814 5813 5812 5809 5807 5805 5803 5800 5798 5794 5790 5786 5781 5776 5771 5767 5763 5757 5753 5748 5743 5737 5730 5723 5717 5714 5713 5712 5712 5713 5712 5716 5720 5726 5733 5741 5749 5757 5765 5775 5779 5782
5812 5812 5809 5807 5805 5803 5800 5798 5795 5791 5788 5783 5779 5775 5770 5766 5762 5757 5753 5749 5743 5737 5731 5723 5715 5708 5704 5702 5703 5703 5701 5701 5701 5701 5703 5708 5714 5721 5728 5736 5745 5753 5762 5765
5807 5806 5803 5800 5798 5796 5793 5791 5788 5784 5780 5776 5772 5768 5764 5759 5754 5750 5745 5739 5734 5727 5719 5710 5700 5694 5692 5693 5694 5694 5694 5692 5691 5693 5693 5695 5699 5703 5709 5716 5723 5732 5741 5747
5800 5798 5796 5794 5791 5789 5786 5783 5779 5775 5771 5766 5763 5759 5754 5750 5745 5741 5736 5731 5724 5717 5708 5699 5689 5683 5682 5685 5687 5687 5686 5686 5685 5684 5685 5685 5686 5689 5693 5698 5705 5711 5719 5727
5793 5792 5790 5787 5785 5781 5778 5774 5772 5769 5765 5758 5755 5750 5746 5742 5738 5733 5728 5722 5716 5707 5700 5691 5683 5677 5676 5679 5680 5680 5679 5678 5678 5678 5678 5677 5676 5677 5679 5683 5688 5694 5700 5706
5787 5784 5782 5780 5777 5774 5771 5767 5764 5759 5756 5751 5747 5743 5739 5734 5729 5725 5720 5714 5707 5700 5693 5685 5679 5674 5673 5672 5672 5673 5673 5671 5670 5670 5670 5670 5669 5668 5668 5669 5673 5678 5683 5687
5780 5778 5774 5771 5771 5767 5764 5760 5755 5751 5747 5744 5740 5733 5730 5726 5721 5717 5712 5706 5700 5693 5686 5680 5675 5671 5668 5666 5664 5663 5662 5661 5661 5660 5660 5660 5661 5661 5659 5659 5660 5663 5667 5671
5773 5771 5767 5764 5761 5759 5756 5751 5748 5744 5739 5736 5733 5728 5720 5718 5714 5709 5705 5700 5693 5687 5681 5675 5671 5667 5662 5659 5657 5655 5654 5653 5651 5650 5649 5648 5647 5649 5650 5650 5650 5650 5652 5656
5766 5763 5759 5755 5753 5750 5748 5744 5740 5736 5732 5729 5725 5720 5714 5712 5707 5702 5698 5693 5687 5682 5677 5670 5665 5661 5656 5652 5649 5647 5645 5643 5642 5640 5639 5637 5636 5635 5636 5637 5638 5638 5640 5641
5758 5754 5751 5748 5744 5742 5740 5735 5732 5729 5725 5722 5717 5714 5708 5704 5700 5695 5690 5687 5680 5675 5670 5665 5660 5655 5650 5646 5642 5638 5635 5633 5632 5630 5628 5626 5625 5624 5624 5623 5624 5624 5624 5626
5749 5745 5742 5740 5737 5735 5734 5730 5725 5723 5718 5714 5710 5706 5701 5697 5692 5687 5681 5679 5674 5669 5663 5659 5654 5649 5645 5640 5636 5631 5627 5624 5620 5618 5617 5616 5614 5613 5613 5612 5611 5610 5609 5609
5740 5737 5734 5732 5730 5728 5725 5722 5717 5715 5710 5706 5703 5697 5693 5690 5687 5681 5674 5671 5668 5662 5657 5652 5647 5643 5639 5634 5629 5624 5620 5615 5611 5607 5604 5604 5603 5602 5601 5600 5600 5599 5597 5596
5732 5730 5725 5725 5722 5721 5719 5714 5711 5707 5705 5699 5695 5690 5685 5681 5678 5675 5667 5663 5658 5654 5649 5644 5640 5635 5631 5627 5622 5617 5613 5608 5603 5599 5595 5593 5591 5590 5589 5588 5587 5587 5586 5584
5725 5721 5720 5718 5714 5713 5710 5706 5703 5699 5696 5692 5687 5682 5678 5674 5668 5664 5658 5653 5649 5645 5641 5636 5631 5627 5623 5619 5615 5610 5605 5600 5595 5591 5587 5583 5579 5577 5576 5576 5575 5574 5574 5572
5718 5713 5712 5709 5707 5706 5703 5698 5695 5692 5690 5682 5679 5674 5669 5664 5661 5656 5651 5646 5640 5636 5632 5627 5622 5617 5613 5610 5606 5602 5597 5592 5587 5583 5578 5573 5570 5566 5563 5562 5561 5562 5561 5559
5710 5706 5705 5701 5700 5697 5695 5690 5687 5682 5677 5674 5669 5664 5659 5655 5651 5646 5641 5635 5630 5626 5621 5618 5613 5608 5604 5600 5596 5592 5588 5583 5579 5574 5569 5565 5560 5556 5553 5550 5548 5547 5547 5547
5701 5699 5696 5695 5694 5688 5686 5681 5676 5672 5669 5665 5659 5655 5650 5645 5640 5635 5629 5624 5618 5613 5608 5605 5601 5597 5593 5589 5585 5582 5578 5574 5569 5565 5560 5556 5551 5546 5542 5540 5537 5533 5531 5531
5693 5690 5688 5686 5686 5680 5678 5673 5668 5663 5659 5654 5649 5643 5639 5634 5629 5623 5616 5611 5606 5601 5597 5593 5589 5585 5581 5577 5573 5571 5567 5563 5560 5556 5551 5547 5543 5538 5534 5530 5527 5523 5518 5515
5684 5681 5680 5678 5674 5670 5667 5662 5657 5652 5648 5642 5637 5632 5627 5621 5616 5609 5604 5599 5594 5589 5584 5580 5576 5572 5568 5564 5561 5558 5555 5551 5548 5545 5541 5537 5533 5529 5525 5521 5516 5512 5506 5501
5675 5673 5671 5667 5664 5661 5656 5651 5646 5640 5636 5630 5624 5619 5612 5604 5600 5596 5591 5586 5580 5575 5571 5567 5562 5558 5555 5553 5550 5547 5544 5541 5538 5535 5531 5527 5523 5519 5514 5510 5507 5500 5494 5489
Wind_Speed
5 6 7 8 9 10 12 13 14 16 18 19 20 21 24 26 29 31 34 37 41 45 45 46 49 52 55 58 60 61 60 59 57 56 54 49 51 50 48 43 40 45 47 45
8 9 11 12 13 14 16 17 19 20 20 20 22 24 25 28 30 33 36 40 43 46 50 52 53 54 56 60 62 65 66 67 65 64 61 58 53 52 53 50 49 48 55 52
10 11 13 15 17 18 19 20 22 24 24 24 26 27 28 29 31 32 34 38 43 48 50 52 55 55 58 59 63 66 70 71 72 71 70 67 63 57 57 59 57 55 54 51
12 13 15 17 18 20 21 22 24 25 27 27 28 33 31 33 33 35 39 41 44 47 50 53 54 54 56 58 62 66 69 73 76 77 77 76 73 68 62 62 62 60 58 62
14 15 19 20 21 23 24 24 25 26 27 29 30 31 35 35 36 37 39 41 44 47 48 50 51 54 57 55 52 62 69 71 76 79 81 81 80 78 74 66 67 66 66 78
17 19 22 24 24 25 26 27 28 28 29 31 32 32 35 36 37 38 40 43 45 46 47 49 51 53 54 52 48 47 56 64 68 75 81 84 85 84 81 78 71 72 71 68
20 22 25 26 27 27 28 28 30 31 30 32 32 33 35 36 37 38 41 43 45 45 46 49 50 52 51 43 36 35 35 46 55 64 71 78 84 87 86 85 82 75 75 74
23 24 26 27 28 29 29 29 29 32 33 35 35 35 37 36 37 38 40 40 42 43 44 46 47 46 40 36 33 31 31 31 35 45 52 62 68 81 86 87 88 84 80 79
26 27 27 28 29 29 30 30 30 31 32 33 34 34 36 35 36 35 37 39 40 41 41 42 43 39 35 32 29 28 21 25 28 30 36 48 54 58 72 84 89 91 87 84
27 28 28 30 31 31 31 32 32 33 34 35 36 36 35 35 35 35 36 37 38 38 38 38 38 33 29 27 27 27 23 22 23 25 26 36 46 52 55 69 81 86 92 90
29 28 30 31 33 33 33 33 33 34 32 34 34 37 33 33 33 33 35 36 36 36 36 34 33 26 24 27 30 32 29 31 30 28 24 26 32 43 44 59 69 77 82 88
29 29 31 34 33 33 33 34 34 34 32 32 31 34 31 30 31 32 35 36 36 35 34 32 30 24 24 28 31 36 37 38 40 36 31 29 28 31 35 44 64 72 76 79
28 30 34 35 33 33 32 33 32 31 32 31 30 35 32 31 32 31 33 35 35 35 34 32 29 27 24 25 29 30 32 35 41 42 41 40 36 33 33 36 37 64 73 75
29 33 35 34 34 33 31 31 30 31 33 32 30 30 34 32 32 32 32 33 33 33 32 31 29 28 28 28 28 27 27 31 35 36 40 43 44 42 39 39 39 39 52 75
34 34 32 32 32 31 31 28 29 30 31 31 32 30 33 30 30 31 30 31 31 31 31 30 29 29 29 31 32 32 31 31 30 33 34 35 40 44 49 49 47 45 42 44
36 31 30 30 31 30 25 28 30 32 31 31 32 30 32 30 31 31 33 29 31 31 32 30 30 30 30 29 30 32 34 37 36 35 34 35 34 34 36 42 55 59 58 55
30 30 31 29 29 27 25 26 29 31 31 33 34 34 32 31 31 32 35 31 32 32 32 31 30 31 30 30 30 29 30 33 33 38 40 40 39 38 37 38 39 40 50 61
28 29 29 29 29 28 26 28 30 30 31 33 33 33 32 32 29 32 37 35 32 34 34 33 32 31 31 32 31 32 33 34 34 33 37 40 41 40 39 40 41 40 40 41
28 29 29 30 30 28 26 28 31 31 30 30 30 32 32 35 35 32 38 37 37 35 34 35 34 34 32 32 33 33 34 34 34 32 32 35 42 43 42 41 41 41 41 41
26 28 30 30 32 30 30 31 30 29 29 29 31 34 36 37 39 38 39 39 40 40 38 37 37 36 35 33 34 33 32 32 33 32 32 33 33 40 43 43 42 42 42 41
26 30 30 32 32 30 29 31 30 31 31 33 31 34 35 37 38 38 39 40 42 43 41 40 39 39 38 35 34 34 34 32 32 32 33 34 34 35 39 47 46 45 43 43
27 30 30 33 33 33 29 30 30 33 34 35 36 37 40 39 38 39 41 43 45 45 45 42 40 41 40 38 35 35 35 34 33 34 33 34 36 36 37 36 46 51 49 48
28 29 32 33 31 32 32 32 34 35 36 37 40 39 40 40 40 41 43 44 45 46 47 45 42 43 40 39 37 36 35 35 35 33 33 33 33 33 34 35 37 38 49 54
28 32 33 33 31 32 30 32 35 38 40 42 43 44 42 42 42 43 45 47 47 46 47 45 44 42 39 40 39 37 36 36 34 32 32 32 31 30 30 31 34 38 42 43
31 34 34 32 33 33 33 36 38 40 42 45 47 49 47 48 46 47 48 48 48 48 46 45 44 42 40 39 40 38 35 35 33 33 34 34 34 34 35 36 37 38 40 41
33 34 34 35 36 36 38 40 41 45 46 48 51 50 50 52 51 51 50 51 51 50 48 46 42 39 39 39 38 36 34 33 34 36 36 36 38 40 41 41 40 42 41 40
Wind_Direction
292 294 285 283 293 298 298 299 295 291 289 286 283 283 283 282 284 284 282 282 281 279 276 274 273 269 266 264 263 258 256 256 254 253 251 245 239 241 240 238 238 243 243 243
292 293 297 300 298 293 289 288 283 282 283 281 282 283 282 283 285 287 287 287 285 281 279 277 272 268 267 265 261 259 257 255 254 253 251 250 244 237 237 234 235 240 238 237
283 287 288 290 293 291 288 288 290 291 291 291 290 287 287 287 287 287 288 293 291 285 281 276 274 274 270 265 262 258 255 254 254 251 252 250 248 241 238 236 233 234 240 243
288 291 292 293 293 293 292 291 292 294 296 294 294 294 294 293 292 294 298 298 296 293 290 285 279 273 269 266 263 259 254 252 251 251 250 249 250 246 238 237 237 235 239 244
293 295 297 296 296 297 297 296 296 297 298 296 293 294 293 296 296 299 302 303 301 297 293 288 283 279 276 272 267 259 253 250 250 249 249 248 246 248 247 237 236 236 235 240
292 295 296 298 298 296 297 297 296 297 297 296 297 297 295 297 300 304 305 306 304 299 296 292 289 286 282 278 267 258 252 249 247 246 246 245 246 244 244 245 235 235 236 240
296 298 298 297 297 297 296 297 297 297 298 298 299 297 298 301 303 305 307 309 306 302 301 298 295 288 282 278 277 280 266 254 250 246 244 243 243 243 242 241 242 234 235 236
300 298 299 300 299 299 300 301 302 303 305 305 304 303 304 305 305 310 312 309 306 307 306 305 297 288 275 274 279 281 284 279 264 256 251 246 243 240 239 239 239 239 233 234
301 299 300 300 301 301 301 301 302 303 301 300 300 301 301 303 306 311 311 312 313 313 314 316 303 290 267 265 271 271 281 291 287 273 259 253 250 245 240 238 238 239 237 234
297 298 301 302 302 301 303 304 305 306 305 304 305 303 303 305 311 312 313 317 318 320 324 325 310 293 265 261 262 259 269 287 292 286 274 253 251 250 247 242 239 239 239 239
295 296 298 301 303 303 305 304 307 306 306 304 304 302 305 307 309 313 316 319 323 328 331 335 320 303 275 263 257 259 267 279 287 281 272 275 260 249 252 243 240 240 240 241
295 296 301 305 303 302 304 306 309 306 306 305 306 301 305 307 312 316 319 321 326 333 334 336 326 311 288 278 273 267 263 270 280 282 274 265 269 266 256 253 240 239 241 242
293 298 303 304 302 304 307 309 304 305 307 307 309 304 307 310 314 317 321 323 328 333 334 333 328 315 300 288 284 280 277 273 271 275 277 273 267 263 265 261 257 241 241 242
297 302 305 303 305 308 309 307 306 308 311 313 311 312 306 314 313 316 320 324 327 331 331 329 326 318 305 299 295 293 286 279 276 277 276 276 274 266 259 259 259 257 248 244
299 304 303 304 304 306 311 308 304 308 309 314 310 313 303 310 310 311 314 321 323 327 329 326 324 319 311 301 293 289 285 284 280 276 274 271 271 272 266 259 259 256 255 256
303 301 300 301 303 309 312 302 306 309 313 315 312 310 311 308 308 307 309 319 321 323 325 324 322 320 314 309 301 296 289 284 279 275 273 273 272 271 270 266 258 258 260 258
300 300 301 304 308 312 310 306 304 307 312 313 316 314 310 306 307 306 307 315 316 318 320 320 316 315 314 307 306 304 299 297 295 282 270 269 272 270 267 270 272 267 263 257
297 297 301 305 310 312 312 310 305 308 310 315 320 314 310 308 308 305 305 311 311 315 315 315 313 311 310 310 306 303 302 303 301 302 275 264 264 266 267 266 267 269 274 275
293 300 300 307 307 309 312 305 309 311 314 315 316 310 308 308 308 303 304 308 307 311 310 311 310 309 307 307 307 307 304 303 302 301 301 280 270 264 262 264 264 266 268 272
296 297 298 303 304 312 313 313 317 317 313 312 310 308 309 310 312 312 308 306 306 309 308 307 308 306 305 304 304 303 303 304 304 304 301 297 293 272 263 263 262 262 263 267
293 291 298 299 304 308 310 314 315 313 314 312 310 308 308 308 308 308 305 304 303 304 306 306 305 302 302 301 299 299 299 300 301 304 302 298 295 290 276 264 264 263 262 262
289 293 297 298 303 310 313 312 312 310 309 310 310 310 310 309 307 303 301 302 301 301 302 302 300 299 301 299 298 296 295 296 298 301 305 303 301 295 288 287 269 266 265 261
289 292 295 296 305 308 312 311 309 309 309 308 308 308 309 310 307 302 299 297 297 296 297 298 297 298 298 296 295 293 292 292 295 300 304 306 305 300 294 290 290 287 271 265
287 288 291 298 306 306 306 305 304 305 308 308 307 307 307 306 303 300 296 294 294 293 295 295 295 295 294 293 292 292 291 288 290 295 300 303 306 305 302 299 296 292 289 284
285 287 294 302 301 301 304 303 305 304 305 303 304 305 305 303 302 297 295 294 295 295 294 293 293 293 289 289 290 291 292 289 289 288 294 298 300 301 301 300 299 301 302 294
285 289 295 297 299 300 300 302 301 302 303 303 304 303 302 300 300 298 297 296 295 293 293 293 290 287 285 285 287 290 290 289 288 287 291 292 294 296 298 299 300 303 305 305